CAPE
874 732 563 1197 25 0 0 0 22 351 440 579 389 551 664 1145 734 508 881 846 844 1195 1631 2089 2740 2673 2303 2334 2386 2542 2937 2751 2865 3019 3175 2974 2883 2322 2104 2202 2120 1932 1784 1710 1772 1733 1732 1417 1203
877 520 924 1115 0 0 0 0 0 297 483 402 396 529 686 1167 1221 1041 868 1315 977 1440 1695 1850 2828 2730 2597 2408 2379 2588 2584 2272 2621 2866 2933 2758 2666 2354 2311 2256 2235 2042 1885 1496 1499 1873 1609 1516 1373
726 956 992 0 0 0 0 0 160 435 596 537 537 844 848 812 859 817 1398 1373 1487 1718 1820 2060 3204 2876 2321 2387 2648 2757 2755 2566 2437 2541 2380 2361 2490 2462 2313 2335 2407 2098 2027 2004 1443 1465 1689 1780 1552
1079 729 17 3 0 0 0 43 193 540 525 651 658 887 1262 972 863 1264 1651 1556 1743 1845 1830 2860 3354 2508 2343 2457 2501 2596 2421 2452 2410 2519 2526 2474 2435 2454 2355 2215 2394 2236 2191 1851 2071 1560 717 1639 1444
507 24 10 21 0 10 48 217 503 372 711 640 545 937 1233 1501 1553 1688 1787 1623 1724 1979 1987 2367 3144 3165 2909 2713 2606 2512 2452 2416 2358 2306 2383 2423 2334 2294 2257 2315 2145 2031 2061 1962 1758 1754 1436 1737 1835
140 0 66 26 39 138 200 299 378 596 793 743 727 988 1260 1605 1775 1802 1714 1691 1777 1884 2044 2216 2935 3171 2734 2497 2535 2492 2368 2353 2318 2290 2307 2310 2225 2208 2248 2199 2001 1891 2079 1921 1667 1572 1348 1678 1809
104 51 75 68 93 242 284 299 404 533 650 722 859 920 1455 1533 1751 1759 1730 1920 2124 2112 2326 2495 2542 2715 2635 2551 2527 2431 2109 2321 2398 2449 2218 2227 2336 2542 2287 2268 1916 1816 1782 1708 1671 1582 1404 1401 1991
64 66 177 145 120 103 343 330 559 508 970 914 980 909 1238 1591 1692 1763 1852 2007 2161 2220 2304 2490 2627 2499 2479 2552 2591 2502 2656 2401 2395 2719 2141 2361 2518 2436 2226 2119 2132 1874 1703 1656 1081 1141 1523 1466 2118
0 153 248 171 98 109 311 544 675 849 788 979 1059 1095 1254 1589 1640 1576 1752 1881 2089 2183 1965 2455 2514 2754 2766 2799 2504 2723 2530 2494 2459 2157 1955 2238 1905 1812 1738 1769 2009 2070 1771 1674 1583 1260 1303 1373 1411
0 22 2 0 10 93 458 642 826 1001 853 1190 1263 1405 1531 1683 1613 1423 1488 1548 1689 1593 1653 1971 2336 2428 2548 2182 2690 2561 2489 2181 1942 1792 2136 2389 1941 1962 1857 1880 2136 1870 1958 1717 1642 1648 1548 1314 1161
4 23 0 0 0 36 491 787 1007 1080 1014 1197 1371 1594 1742 1700 1599 1419 1394 1408 1548 1777 1859 2062 2321 2539 2400 2167 2454 2513 2359 2173 2227 2336 2522 2691 2162 2350 2536 2807 2786 1981 1721 2083 1593 1323 1496 1462 1116
0 0 8 0 0 323 645 888 1050 1150 808 1047 1442 1696 1784 1658 1508 1420 1430 1464 1565 1803 1808 1962 2162 2504 2501 2485 2644 2384 2056 2098 1800 2074 2653 2439 2210 1857 1921 2326 1902 1174 1707 1766 2012 1440 1229 1456 1479
0 0 0 0 0 132 663 791 1043 1184 1261 1492 1578 1825 1816 1714 1609 1472 1476 1504 1485 1603 1739 1805 1827 1831 2216 2188 1937 1828 2254 2139 2116 2155 2178 2297 1958 1764 1672 1549 1838 1912 2008 2564 2438 2383 2030 1524 1597
0 0 0 0 0 10 560 656 920 1123 1683 1767 1758 1868 1787 1843 1871 1755 1762 1846 1716 1568 1602 1429 1210 1315 1246 1910 996 987 1103 2131 2435 2416 1975 2093 1847 2177 2240 2504 2343 2465 2542 1922 2242 2332 2188 2171 1340
0 0 0 0 0 85 299 483 701 1246 1703 1820 1763 1893 1896 1946 1931 2021 1958 1992 1755 1586 1574 1241 712 832 549 1506 1084 792 642 707 1448 979 1389 1610 1938 2033 2085 2027 2104 2128 1646 1880 1955 1914 1807 1771 1810
0 0 0 0 0 16 255 99 593 1434 1710 1813 1893 1848 1940 2106 2068 2064 2023 2047 1840 1761 1658 974 763 239 43 1015 975 407 403 163 78 211 788 682 1704 2083 2336 2498 1575 1675 1349 855 1213 1966 1551 1525 1621
0 0 0 0 0 20 294 88 105 1488 1611 1808 1898 1915 1963 2076 2181 2238 2163 2151 2108 2021 1808 1079 435 152 552 554 350 64 61 121 14 332 911 1242 1510 1513 1853 1529 1494 1630 1292 934 731 583 904 1342 1503
0 0 0 0 0 0 159 33 524 1591 1691 1804 1814 1948 1973 1949 1991 2069 2098 2135 2312 2216 1937 1425 528 259 474 419 232 89 5 151 63 600 677 871 1945 1747 2308 1883 1636 1573 1471 1395 1265 1103 593 482 521
0 0 0 0 0 0 0 4 26 1544 1716 1743 1851 2015 2007 1947 1915 1922 1833 1890 2195 2214 2156 1939 1109 402 343 504 455 295 67 167 189 368 551 557 1651 1252 1911 1571 1526 1484 1453 1386 1463 1217 1121 1013 724
0 0 0 0 0 0 0 0 0 1109 1629 1673 1807 1926 1998 1923 1935 1986 2159 2049 2112 2075 2152 2145 1411 770 241 166 146 205 31 279 430 447 398 862 1424 1389 1496 1456 1255 1174 1019 1235 1173 1067 827 790 524
0 0 0 0 0 0 0 0 0 112 1099 613 1565 1832 1962 2035 2092 2305 2187 2188 2000 1977 1846 2033 1370 678 127 221 216 281 283 339 815 614 647 788 989 1005 955 881 959 1009 934 698 911 888 752 1002 324
0 0 0 0 0 0 0 0 5 0 0 534 1251 1147 1898 2090 2154 2421 2352 2256 2078 2036 1728 1796 1015 534 197 199 174 327 462 1028 786 866 791 539 366 349 400 538 534 671 562 755 891 972 950 747 495
0 0 0 0 0 0 0 0 3 0 312 117 1493 1297 1619 2129 2169 2365 2450 2263 2098 1886 1721 1455 782 601 351 330 328 583 1090 1124 916 849 795 455 320 334 352 511 564 630 701 826 966 928 841 809 924
0 0 0 0 0 0 0 0 0 75 69 170 195 1993 1755 2086 2203 2361 2490 2097 2018 1835 1455 1368 875 699 514 290 422 711 1382 1195 1066 786 419 244 281 277 374 394 204 178 415 691 941 1029 931 857 741
0 0 0 0 0 0 0 0 114 34 83 272 371 716 2216 2217 2475 2698 2581 2291 2165 2045 1874 1575 982 693 591 424 369 1382 1123 1047 973 514 309 306 202 140 226 160 93 6 2 303 512 773 831 841 834
0 0 0 0 0 0 0 13 27 13 337 1167 686 449 2278 2435 2557 2687 2756 2616 2389 2264 2143 1593 1053 613 731 731 956 1567 1104 732 428 342 348 232 129 15 13 119 24 8 7 5 49 254 503 728 827
0 0 0 0 0 0 0 5 50 91 931 1344 1937 2442 2617 2600 2590 2779 2948 2762 2568 2364 2078 1535 1040 623 586 805 1588 1115 865 476 338 300 282 187 128 2 6 7 7 9 4 6 5 8 9 9 167
0 0 0 0 2 0 0 0 36 320 973 1000 2124 2220 2564 2676 2605 2734 2943 2732 2430 2390 2039 1477 964 935 906 1222 1165 829 544 280 215 253 213 175 61 6 9 5 3 6 8 8 6 7 8 8 9
0 0 0 0 0 3 0 0 134 435 770 717 1394 1566 1864 2354 2504 2566 2819 2993 2922 2641 2426 2372 1977 1274 461 276 232 228 262 254 257 196 144 71 7 7 7 3 2 4 8 11 5 7 5 7 9
0 0 1 3 1 0 0 0 0 14 228 408 578 1054 896 1061 2159 2389 2539 2774 3009 2853 2587 2287 1574 891 421 159 154 354 342 255 288 140 43 5 3 5 4 1 1 2 6 11 12 11 3 2 6
CIN
-320 -324 -327 -193 -13 0 0 0 -92 -17 -15 -24 -23 -7 -8 -31 -21 -30 -98 -81 -62 -29 -2 0 0 0 0 0 0 0 0 -1 -2 -1 0 0 0 -1 -2 -2 -2 -1 -7 -5 0 0 0 0 0
-360 -400 -262 -196 0 0 0 0 0 -44 -51 -36 -24 -16 -14 -17 -49 -94 -94 -33 -45 -20 -5 -3 -1 0 0 0 0 0 0 -1 0 0 0 0 0 -1 0 0 -2 -4 -5 -12 -10 -1 -3 -1 0
-406 -319 -213 0 0 0 0 0 -52 -53 -42 -25 -23 -27 -26 -28 -73 -86 -48 -39 -13 -9 -5 -1 0 0 0 0 0 0 0 0 0 0 0 0 0 0 0 -1 0 -3 -3 -1 -12 -3 -2 -1 -2
-348 -382 -220 -35 0 0 0 -63 -67 -52 -61 -43 -27 -18 -18 -29 -46 -42 -18 -14 -7 -6 -3 0 0 0 0 0 0 0 0 0 0 0 0 0 0 0 0 -1 0 -4 -3 -6 -1 -3 -40 0 0
-472 -310 -73 -30 0 -29 -93 -74 -64 -60 -62 -63 -60 -28 -11 -5 -26 -38 -18 -13 -15 -7 -2 0 -1 0 0 0 0 0 0 0 0 0 0 0 0 0 0 0 0 0 -2 -3 -2 0 -6 0 0
-262 0 -25 -14 -29 -58 -64 -83 -71 -61 -81 -91 -70 -48 -15 -15 -6 -15 -20 -17 -5 -10 -1 0 0 0 0 0 0 0 0 0 0 0 0 0 0 0 0 0 0 0 -1 -5 -3 -2 -6 -3 0
-177 -99 -43 -29 -24 -38 -50 -98 -77 -77 -85 -91 -101 -73 -37 -29 -27 -25 -24 -16 -3 -1 0 0 0 0 0 0 0 0 -5 0 0 0 0 0 0 0 0 0 -1 -1 -5 -9 -6 -4 -3 -6 0
-225 -114 -56 -56 -16 -17 -59 -84 -94 -91 -77 -130 -132 -84 -68 -66 -43 -28 -17 -8 -2 -2 -1 0 0 0 0 0 0 0 0 0 0 0 0 0 0 0 0 0 0 0 -1 -6 -9 -4 -2 -4 -1
0 -47 -29 -20 -40 -28 -93 -59 -116 -128 -121 -115 -138 -130 -129 -131 -83 -43 -19 -6 -1 -1 -11 0 0 0 0 0 0 0 0 0 0 0 0 0 0 0 0 -1 -3 0 0 0 -2 -4 -4 -4 -3
0 -16 -18 0 -126 -53 -79 -56 -86 -92 -116 -138 -159 -179 -163 -128 -115 -99 -72 -51 -35 -42 -42 -17 -2 0 0 0 0 0 0 0 0 0 0 0 0 0 0 -1 0 -3 0 0 0 0 -2 -2 0
-16 -75 0 0 0 -129 -66 -74 -80 -74 -100 -108 -118 -180 -155 -136 -115 -115 -94 -70 -73 -38 -35 -21 -6 0 0 0 0 0 0 0 0 0 0 0 0 0 0 0 0 0 -4 0 -1 -1 0 0 0
0 -28 -179 0 0 -98 -68 -81 -70 -86 -78 -142 -164 -170 -161 -137 -118 -119 -89 -69 -65 -54 -38 -18 -5 0 0 0 0 0 0 0 0 0 0 0 0 -1 -1 -8 -6 -61 -18 -2 0 0 -3 0 0
0 0 0 0 0 -147 -139 -101 -73 -95 -179 -190 -230 -201 -158 -120 -110 -104 -71 -71 -66 -56 -35 -47 -40 -66 -4 0 -2 -11 0 0 0 0 0 0 -1 -3 -7 -13 -7 -16 -12 -4 -1 0 -2 -5 0
0 0 0 0 0 -34 -66 -100 -102 -158 -220 -224 -222 -193 -157 -126 -105 -94 -79 -58 -60 -51 -71 -105 -171 -179 -147 -16 -19 -23 -12 0 -2 -1 -9 -1 -4 -8 -4 -6 -7 -3 -9 -6 -9 -3 -2 -4 -3
0 0 0 0 0 -134 -107 -89 -66 -187 -199 -205 -194 -193 -170 -149 -125 -108 -80 -58 -59 -78 -107 -174 -260 -199 -183 -19 -32 -26 -29 -26 -4 -32 -24 -35 -14 -12 -15 -4 -11 -12 -13 -12 -6 -4 -1 -1 -1
0 0 0 0 0 -233 -73 -25 -47 -209 -192 -175 -192 -185 -176 -159 -139 -117 -98 -75 -82 -82 -123 -184 -211 -275 -321 -31 -15 -42 -40 -69 -122 -93 -28 -72 -17 -15 -10 -8 -7 -23 -28 -44 -10 -1 0 0 0
0 0 0 0 0 -38 -86 -42 -161 -211 -187 -180 -203 -180 -171 -142 -163 -127 -114 -100 -95 -82 -97 -185 -222 -273 -108 -80 -80 -140 -85 -78 -174 -40 -22 -29 -19 -36 -23 -12 -18 -17 -20 -28 -36 -44 -13 -1 -1
0 0 0 0 0 0 -112 -123 -154 -226 -180 -184 -194 -193 -156 -140 -139 -143 -140 -118 -106 -89 -88 -88 -175 -218 -122 -106 -99 -75 -41 -62 -153 -39 -58 -61 -17 -22 -18 -21 -12 -13 -7 -3 -3 -4 -22 -24 -18
0 0 0 0 0 0 0 -97 -138 -177 -196 -195 -218 -211 -166 -119 -126 -161 -168 -166 -141 -116 -91 -75 -104 -196 -170 -74 -16 -12 -23 -45 -131 -108 -81 -91 -25 -7 -8 -14 -13 -9 -2 0 0 0 0 0 0
0 0 0 0 0 0 0 0 0 -190 -163 -141 -189 -175 -137 -122 -203 -177 -176 -188 -186 -160 -112 -62 -78 -142 -216 -191 -152 -87 -164 -78 -99 -137 -163 -84 -18 -9 -15 -13 -9 -7 -1 0 0 0 -1 -1 -1
0 0 0 0 0 0 0 0 0 -149 -222 -271 -224 -205 -148 -108 -157 -183 -201 -201 -204 -194 -168 -75 -93 -181 -324 -211 -163 -134 -159 -148 -62 -84 -82 -46 -26 -27 -19 -16 -7 -2 0 -1 0 0 -1 0 -2
0 0 0 0 0 0 0 0 -163 0 0 -200 -229 -259 -173 -131 -157 -177 -213 -226 -211 -175 -183 -107 -198 -264 -338 -286 -219 -138 -117 -29 -30 -27 -30 -50 -70 -51 -21 -7 -3 0 0 -1 0 0 0 0 0
0 0 0 0 0 0 0 0 -133 -5 -99 -200 -174 -233 -175 -112 -157 -151 -194 -203 -229 -213 -202 -184 -271 -288 -302 -292 -210 -119 -31 -27 -31 -24 -19 -29 -39 -15 -1 0 -1 0 -1 0 -6 0 0 0 0
0 0 0 0 0 0 0 0 0 -113 -213 -201 -206 -169 -203 -187 -179 -177 -219 -266 -239 -242 -250 -205 -262 -273 -257 -297 -211 -101 -21 -26 -20 -38 -51 -55 -16 -16 -3 -1 -12 -13 -2 0 0 0 0 0 0
0 0 0 0 0 0 0 -89 -86 -209 -283 -295 -271 -202 -165 -208 -200 -217 -247 -234 -223 -208 -186 -166 -244 -286 -247 -229 -215 -17 -30 -32 -27 -65 -77 -42 -34 -46 -23 -27 -41 0 0 -6 0 0 0 0 0
0 0 0 0 0 0 0 -105 -94 -377 -338 -314 -321 -329 -149 -175 -187 -202 -183 -178 -180 -173 -159 -163 -194 -282 -187 -117 -44 0 -3 -25 -97 -111 -89 -100 -81 -32 -10 -48 -31 0 0 0 -99 -13 0 0 0
0 0 0 0 0 0 0 -18 -205 -267 -175 -231 -211 -206 -161 -190 -194 -161 -145 -150 -158 -141 -124 -140 -188 -219 -169 -52 0 -14 -28 -45 -113 -130 -113 -103 -75 0 0 0 0 0 0 0 0 0 0 -26 -5
0 0 0 0 -131 0 0 0 -119 -48 -63 -200 -185 -194 -216 -215 -191 -130 -96 -116 -134 -120 -110 -136 -149 -103 -61 -1 -8 -30 -40 -96 -120 -146 -138 -124 -151 0 0 0 0 0 0 0 0 0 0 0 0
0 0 0 0 0 -115 0 0 -139 -93 -103 -191 -248 -286 -274 -228 -193 -188 -136 -120 -88 -85 -77 -42 -26 -53 -110 -77 -63 -98 -118 -126 -108 -165 -189 -179 -107 0 0 0 0 0 0 0 0 0 0 -1 0
0 0 -68 -132 -9 0 0 0 0 -341 -340 -417 -353 -366 -418 -406 -244 -189 -136 -108 -70 -56 -52 -35 -63 -86 -46 -36 -70 -66 -58 -81 -87 -151 -208 -176 0 0 0 0 0 0 0 0 0 0 0 0 0
Wind_Speed
16 12 5 2 1 3 6 6 5 5 3 3 5 1 4 6 3 3 7 7 16 16 14 15 13 13 14 14 13 13 13 14 14 15 14 13 13 12 11 10 8 8 7 7 9 9 8 10 9
13 11 2 1 3 8 6 4 5 5 8 8 8 4 5 5 4 8 11 11 17 15 14 14 13 14 13 13 13 12 13 14 13 13 13 12 12 11 10 8 7 6 7 11 1 8 7 11 9
13 5 2 2 2 5 5 3 8 7 5 4 3 7 5 5 6 14 7 16 15 14 14 14 14 14 15 13 13 12 11 13 13 13 13 12 11 10 10 9 8 6 7 11 11 5 8 9 10
6 3 2 2 7 4 2 6 5 4 5 6 5 7 6 9 6 4 13 15 14 13 13 15 15 15 15 14 13 13 12 11 12 12 12 11 10 9 8 7 7 5 7 8 9 11 5 7 8
3 2 3 4 5 3 3 7 4 3 3 5 2 5 6 4 7 14 14 12 14 12 12 14 14 13 14 14 14 13 12 11 11 11 12 11 10 8 7 6 5 4 4 3 7 10 10 10 10
3 2 3 3 4 3 4 6 2 4 3 5 8 7 5 5 9 11 13 12 11 12 12 12 12 13 13 14 14 14 13 11 11 11 10 10 9 8 7 5 4 4 4 3 3 6 9 11 10
4 1 4 3 2 0 3 6 2 2 5 3 8 6 4 6 10 12 12 11 11 10 9 10 11 11 13 12 12 13 14 12 10 10 9 8 8 7 6 4 3 2 3 3 3 4 8 10 12
2 1 4 3 4 3 6 9 1 6 2 10 4 5 6 10 13 13 12 11 10 10 9 9 8 9 9 10 11 11 11 12 10 10 8 7 6 6 6 4 4 3 2 2 0 2 7 9 11
4 1 3 4 6 4 9 8 6 3 9 2 2 3 6 18 16 14 12 10 8 8 8 7 9 8 8 7 8 9 10 11 10 9 10 9 5 6 6 3 3 3 3 2 2 1 2 6 9
1 2 1 1 3 5 13 11 11 5 9 2 5 10 16 16 15 16 15 12 11 11 9 7 9 8 8 6 8 8 7 7 7 7 8 7 5 5 5 4 5 5 4 4 3 3 3 6 5
1 3 3 0 3 6 11 9 7 6 8 7 11 17 17 15 14 15 15 14 13 11 8 9 9 8 8 6 6 4 5 5 5 7 7 5 5 5 4 4 4 4 5 4 6 5 5 6 4
2 2 3 2 3 7 10 10 7 10 2 2 14 20 17 15 15 15 13 13 14 13 11 9 8 6 7 4 4 4 4 5 5 7 7 5 5 6 5 4 3 3 3 6 6 4 5 6 6
1 2 3 1 4 6 10 8 4 9 5 12 17 18 17 15 14 13 11 11 11 11 9 10 8 8 7 6 4 3 5 6 6 6 7 6 6 6 5 5 5 5 6 5 6 5 6 6 6
2 3 4 2 4 8 12 6 5 5 11 14 17 17 16 17 17 13 13 13 12 10 11 9 10 10 10 9 4 4 3 8 6 7 7 8 6 5 5 5 5 4 4 4 5 5 5 5 6
3 4 2 1 4 4 8 5 13 10 15 16 16 15 15 15 15 17 15 13 12 12 13 13 10 7 6 8 7 7 6 6 7 6 8 10 9 9 6 5 5 3 4 5 5 5 5 5 6
2 2 3 2 2 4 12 8 12 14 17 16 15 14 14 17 17 15 14 13 12 14 16 12 8 5 3 6 5 4 3 3 2 2 5 6 8 9 6 5 5 4 3 3 4 5 5 6 6
5 2 4 5 4 2 11 4 1 13 14 15 15 15 14 13 14 14 14 14 15 16 16 14 8 4 1 4 4 2 3 3 2 6 5 4 9 8 7 5 5 5 5 5 5 4 5 5 6
2 1 2 5 1 4 8 6 2 11 14 17 16 15 14 14 16 13 13 12 14 15 16 14 11 4 4 4 4 2 1 3 4 3 1 5 5 9 6 4 4 4 4 5 5 7 4 6 4
5 1 4 3 1 3 7 6 7 11 13 14 15 15 14 15 10 12 12 12 11 12 13 13 11 6 5 3 3 3 3 3 1 1 2 3 4 3 3 3 4 4 5 5 5 5 7 6 5
3 2 3 3 5 2 2 3 3 8 9 11 12 13 14 12 12 11 12 12 11 10 11 11 9 7 5 4 2 1 2 1 2 2 2 3 4 0 1 1 2 3 4 5 5 6 5 5 6
3 3 2 2 3 3 2 1 2 1 8 3 11 15 15 16 14 12 11 12 10 11 10 10 9 8 7 4 4 3 3 4 3 2 2 2 2 3 2 1 3 4 5 6 7 7 9 6 5
4 6 3 1 1 2 6 2 4 3 7 6 7 14 17 16 14 12 13 11 10 9 9 10 9 10 7 7 5 6 5 4 2 3 4 3 4 4 4 4 4 5 5 7 7 6 7 7 5
3 3 4 3 3 2 4 4 1 1 4 7 5 7 13 10 13 15 14 10 9 9 11 11 9 9 7 6 5 4 5 5 6 4 4 3 2 4 4 4 4 4 4 6 6 6 6 6 5
11 5 5 3 1 4 2 3 2 3 4 8 7 5 7 8 12 11 10 11 9 7 8 9 10 10 8 7 7 5 7 9 7 5 3 2 1 2 4 5 4 4 3 3 4 5 6 6 7
3 4 1 3 4 2 2 4 4 2 6 8 11 9 5 8 11 11 12 13 11 10 9 8 10 10 9 8 7 7 8 8 8 6 4 3 3 4 5 6 6 4 4 4 3 3 4 4 5
4 4 3 3 3 3 2 3 1 2 5 6 7 9 4 6 9 10 10 9 9 9 10 9 10 10 9 8 6 5 6 5 6 6 5 5 4 5 5 6 7 8 6 5 5 3 3 3 3
6 4 4 7 1 4 1 3 8 3 2 3 4 1 3 4 6 8 8 8 8 7 7 7 8 10 9 7 7 7 7 5 7 8 6 5 4 5 7 7 7 7 7 6 6 5 5 4 4
2 9 5 1 5 4 2 4 3 3 5 1 2 1 1 2 3 7 9 8 7 7 6 6 6 5 6 8 6 7 7 6 6 8 9 8 8 7 7 8 8 8 7 6 6 5 5 7 6
5 4 5 4 3 4 3 3 5 6 3 1 3 4 4 6 5 7 9 10 8 7 7 6 7 7 5 6 8 6 7 8 6 7 9 9 8 7 7 8 9 9 7 6 7 7 9 9 9
1 4 6 5 6 1 3 4 1 4 2 2 1 4 8 8 4 6 8 8 9 8 7 7 8 9 6 4 6 5 8 8 8 9 10 9 8 7 8 8 8 7 6 8 9 9 9 10 10
Wind_Direction
140 143 162 218 207 86 62 54 347 73 77 52 103 32 76 36 11 44 135 153 149 147 148 147 143 142 135 130 126 123 122 122 120 127 132 136 136 138 140 144 148 151 147 133 135 139 147 130 133
142 151 173 242 52 82 70 11 55 47 101 89 80 78 58 67 56 120 141 158 151 146 151 154 148 141 136 137 133 129 128 129 129 131 134 140 143 148 151 153 156 168 140 113 201 151 151 136 142
151 163 270 24 63 49 82 83 118 106 31 70 102 46 23 40 106 138 132 151 148 152 154 151 147 143 145 145 142 140 137 138 140 142 146 150 153 158 154 159 153 147 154 157 168 171 151 151 158
156 199 190 23 48 66 46 136 140 106 74 63 74 69 79 84 131 124 139 148 147 153 156 149 146 149 149 148 151 149 147 146 146 147 148 150 152 153 152 154 151 148 141 153 164 143 167 161 160
194 212 58 64 22 356 93 139 148 27 61 84 81 97 91 53 108 134 144 153 151 152 155 158 149 152 152 155 156 155 152 153 151 152 153 151 150 151 152 150 146 140 134 116 153 165 175 172 154
164 271 79 59 18 14 114 145 140 39 61 112 94 109 97 113 137 138 147 153 153 152 155 159 155 155 159 164 161 160 160 162 161 158 158 159 156 160 166 164 166 167 162 143 136 164 163 177 163
277 173 91 135 97 253 167 160 208 95 131 101 119 121 100 152 144 145 147 148 149 153 155 161 165 166 167 170 171 169 165 170 174 169 166 170 171 174 169 177 182 202 220 162 131 158 167 173 168
223 170 125 170 182 238 168 167 174 157 87 130 138 147 162 158 150 145 143 144 149 159 158 165 173 178 181 174 177 181 175 173 181 164 169 186 177 176 184 182 183 192 194 165 215 81 174 177 176
186 158 150 192 174 186 156 186 138 114 145 140 80 124 125 144 147 146 145 149 157 165 170 177 181 186 184 187 185 187 190 191 183 177 182 186 199 193 189 168 182 203 207 230 220 181 132 177 187
208 77 136 233 234 205 171 186 157 154 166 147 100 94 131 148 160 161 167 165 174 178 177 190 188 196 194 194 196 197 201 198 199 196 193 193 191 204 215 222 221 225 222 231 229 225 182 188 185
152 115 189 72 224 184 180 162 166 153 212 204 168 148 155 160 173 179 180 178 181 179 181 190 190 194 204 208 208 201 202 205 206 208 213 199 201 205 213 218 213 224 220 242 205 200 210 185 189
251 102 233 107 162 169 178 146 181 197 59 263 156 155 160 170 181 189 184 183 184 185 183 182 201 214 215 217 224 254 232 224 214 207 214 208 215 214 224 234 215 213 246 223 226 212 219 209 196
74 15 226 192 185 162 145 176 188 223 60 123 142 158 168 180 191 198 195 194 190 183 168 186 177 197 210 204 187 244 256 252 231 227 216 217 227 229 219 225 223 236 236 223 222 216 215 217 214
299 286 284 240 147 173 186 170 186 152 133 139 155 171 176 186 194 194 199 201 192 167 173 178 204 215 162 188 154 212 263 274 247 233 226 223 232 243 238 241 235 234 201 219 236 229 222 220 227
19 326 66 20 132 168 176 197 228 155 161 160 171 180 183 197 196 203 202 203 188 174 177 194 210 233 156 193 178 208 206 255 273 302 253 227 217 239 226 244 245 236 235 237 222 230 243 241 230
57 60 329 20 217 151 199 255 226 167 168 173 181 185 193 201 208 206 201 199 185 175 187 199 211 272 226 209 192 206 234 231 271 313 257 264 263 256 240 237 238 221 222 221 256 227 226 237 239
35 339 325 351 300 227 219 253 207 174 181 179 185 194 198 204 212 214 208 194 187 181 180 199 189 216 206 180 142 117 199 162 214 252 266 293 261 237 233 235 242 211 217 229 235 256 260 258 241
155 21 295 274 41 216 209 268 145 187 194 193 190 194 203 209 216 207 213 200 194 181 188 181 191 181 106 136 145 153 230 222 201 213 196 315 266 227 209 198 193 197 219 235 235 243 230 245 245
123 137 272 269 273 243 202 223 225 195 212 210 200 197 207 212 215 208 202 196 196 186 189 186 184 169 142 155 200 206 186 221 173 134 346 294 331 233 186 161 177 193 226 243 233 239 244 237 227
133 161 241 277 343 219 195 177 328 202 232 238 212 210 218 196 198 199 193 188 193 189 193 185 172 170 181 183 203 170 160 185 94 42 18 11 275 86 121 166 209 235 259 253 248 234 240 244 198
169 209 194 296 345 85 333 127 325 177 247 261 225 219 213 208 197 194 197 195 185 186 188 181 163 169 171 169 153 152 154 144 146 112 102 108 95 73 40 320 294 277 266 266 261 243 231 237 201
197 209 188 265 299 24 348 298 245 317 316 324 284 212 213 207 198 195 196 192 189 178 173 170 158 159 165 158 180 175 157 140 105 120 108 98 44 26 356 320 299 281 276 264 255 242 236 223 208
100 107 131 93 89 216 36 270 266 235 237 343 354 214 222 206 191 199 197 179 179 164 169 163 162 159 162 162 176 159 139 129 131 134 122 67 50 20 2 342 311 290 268 255 255 247 226 226 221
142 110 74 78 133 234 47 290 192 307 339 315 329 262 224 194 191 195 177 151 163 169 162 159 164 159 160 175 161 155 154 147 150 135 144 125 132 79 32 12 7 349 337 296 286 277 261 227 219
144 157 213 228 206 239 136 242 267 283 327 289 295 292 217 178 177 180 175 165 162 181 178 171 170 160 163 172 169 179 161 154 143 144 120 106 73 51 38 26 21 11 353 352 344 311 283 252 233
158 219 210 235 214 158 154 229 161 78 303 312 279 257 237 181 183 180 180 160 168 179 171 173 174 167 173 170 174 163 147 145 125 107 99 75 54 42 28 38 31 26 12 5 23 16 9 274 248
154 181 80 109 102 252 333 253 273 140 233 12 28 81 189 206 183 160 150 157 164 169 177 173 177 176 178 168 155 143 126 137 110 106 99 91 65 49 39 42 38 33 32 26 37 35 33 48 44
252 134 155 143 176 220 186 273 263 271 233 66 84 24 7 282 94 129 143 152 176 172 170 167 167 173 161 161 126 127 130 121 120 114 98 80 63 50 51 50 46 37 25 32 54 50 55 56 40
146 170 68 100 327 196 217 230 221 262 269 119 33 1 7 31 84 159 159 164 173 168 152 146 129 120 103 118 130 139 143 125 122 101 93 88 78 64 68 66 60 52 40 45 66 61 55 59 55
192 188 172 195 183 60 304 224 46 221 221 126 79 32 45 46 127 147 160 159 175 162 141 136 130 114 103 111 135 141 136 142 130 117 103 93 85 71 68 71 74 72 63 57 62 65 59 58 55